Data supplied by UK-AIR on 4/4/2023
All Data GMT hour ending 
Status: R =Ratified P=Provisional,P*=As supplied
,,London Haringey Priory Park South,,,,,,,,,,,,,,,,,,,,,,,
Date,time,"Nitric oxide",status,unit,"Nitrogen dioxide",status,unit,"Nitrogen oxides as nitrogen dioxide",status,unit,"Ozone",status,unit
 
01-01-2022,01:00,0.37419,R,ugm-3,13.77000,R,ugm-3,14.34375,R,ugm-3,45.70153,R,ugm-3
01-01-2022,02:00,0.12473,R,ugm-3,9.37125,R,ugm-3,9.56250,R,ugm-3,42.70798,R,ugm-3
01-01-2022,03:00,0.12473,R,ugm-3,8.98875,R,ugm-3,9.37125,R,ugm-3,43.70583,R,ugm-3
01-01-2022,04:00,0.12473,R,ugm-3,6.12000,R,ugm-3,6.31125,R,ugm-3,49.69293,R,ugm-3
01-01-2022,05:00,0.00000,R,ugm-3,5.54625,R,ugm-3,5.35500,R,ugm-3,53.08562,R,ugm-3
01-01-2022,06:00,0.12473,R,ugm-3,6.88500,R,ugm-3,7.26750,R,ugm-3,52.48691,R,ugm-3
01-01-2022,07:00,0.24946,R,ugm-3,8.03250,R,ugm-3,8.41500,R,ugm-3,50.49121,R,ugm-3
01-01-2022,08:00,0.49892,R,ugm-3,10.71000,R,ugm-3,11.47500,R,ugm-3,48.69508,R,ugm-3
01-01-2022,09:00,0.49892,R,ugm-3,13.19625,R,ugm-3,13.96125,R,ugm-3,48.09637,R,ugm-3
01-01-2022,10:00,0.99784,R,ugm-3,13.00500,R,ugm-3,14.53500,R,ugm-3,48.69508,R,ugm-3
01-01-2022,11:00,1.37203,R,ugm-3,10.90125,R,ugm-3,13.00500,R,ugm-3,48.29594,R,ugm-3
01-01-2022,12:00,1.24730,R,ugm-3,8.41500,R,ugm-3,10.32750,R,ugm-3,50.89035,R,ugm-3
01-01-2022,13:00,1.12257,R,ugm-3,9.37125,R,ugm-3,11.28375,R,ugm-3,49.29379,R,ugm-3
01-01-2022,14:00,1.12257,R,ugm-3,13.38750,R,ugm-3,15.10875,R,ugm-3,47.09852,R,ugm-3
01-01-2022,15:00,0.99784,R,ugm-3,13.00500,R,ugm-3,14.53500,R,ugm-3,47.49766,R,ugm-3
01-01-2022,16:00,0.49892,R,ugm-3,10.51875,R,ugm-3,11.28375,R,ugm-3,49.29379,R,ugm-3
01-01-2022,17:00,0.74838,R,ugm-3,13.96125,R,ugm-3,15.10875,R,ugm-3,45.70153,R,ugm-3
01-01-2022,18:00,0.49892,R,ugm-3,14.53500,R,ugm-3,15.30000,R,ugm-3,46.69938,R,ugm-3
01-01-2022,19:00,0.49892,R,ugm-3,13.38750,R,ugm-3,14.15250,R,ugm-3,49.29379,R,ugm-3
01-01-2022,20:00,0.49892,R,ugm-3,14.34375,R,ugm-3,15.30000,R,ugm-3,47.89680,R,ugm-3
01-01-2022,21:00,0.49892,R,ugm-3,13.19625,R,ugm-3,13.96125,R,ugm-3,47.49766,R,ugm-3
01-01-2022,22:00,0.37419,R,ugm-3,11.85750,R,ugm-3,12.43125,R,ugm-3,50.89035,R,ugm-3
01-01-2022,23:00,0.24946,R,ugm-3,11.66625,R,ugm-3,11.85750,R,ugm-3,51.68863,R,ugm-3
01-01-2022,24:00,0.24946,R,ugm-3,10.13625,R,ugm-3,10.32750,R,ugm-3,55.28089,R,ugm-3
02-01-2022,01:00,0.12473,R,ugm-3,6.88500,R,ugm-3,7.07625,R,ugm-3,54.88175,R,ugm-3
02-01-2022,02:00,0.12473,R,ugm-3,5.92875,R,ugm-3,6.12000,R,ugm-3,52.88605,R,ugm-3
02-01-2022,03:00,0.24946,R,ugm-3,4.39875,R,ugm-3,4.78125,R,ugm-3,62.06627,R,ugm-3
02-01-2022,04:00,0.00000,R,ugm-3,4.20750,R,ugm-3,4.20750,R,ugm-3,65.65853,R,ugm-3
02-01-2022,05:00,0.12473,R,ugm-3,4.59000,R,ugm-3,4.78125,R,ugm-3,56.07917,R,ugm-3
02-01-2022,06:00,0.24946,R,ugm-3,3.63375,R,ugm-3,4.01625,R,ugm-3,63.06412,R,ugm-3
02-01-2022,07:00,0.12473,R,ugm-3,3.82500,R,ugm-3,4.01625,R,ugm-3,77.43316,R,ugm-3
02-01-2022,08:00,0.12473,R,ugm-3,4.78125,R,ugm-3,4.97250,R,ugm-3,80.22714,R,ugm-3
02-01-2022,09:00,0.24946,R,ugm-3,7.65000,R,ugm-3,8.03250,R,ugm-3,78.63058,R,ugm-3
02-01-2022,10:00,0.62365,R,ugm-3,6.88500,R,ugm-3,7.65000,R,ugm-3,77.23359,R,ugm-3
02-01-2022,11:00,0.74838,R,ugm-3,7.65000,R,ugm-3,8.98875,R,ugm-3,77.63273,R,ugm-3
02-01-2022,12:00,0.49892,R,ugm-3,6.12000,R,ugm-3,6.88500,R,ugm-3,78.43101,R,ugm-3
02-01-2022,13:00,0.49892,R,ugm-3,6.88500,R,ugm-3,7.45875,R,ugm-3,80.22714,R,ugm-3
02-01-2022,14:00,0.74838,R,ugm-3,12.24000,R,ugm-3,13.38750,R,ugm-3,73.64133,R,ugm-3
02-01-2022,15:00,0.49892,R,ugm-3,10.90125,R,ugm-3,11.47500,R,ugm-3,,,
02-01-2022,16:00,0.49892,R,ugm-3,8.98875,R,ugm-3,9.75375,R,ugm-3,79.22929,R,ugm-3
02-01-2022,17:00,0.49892,R,ugm-3,9.75375,R,ugm-3,10.32750,R,ugm-3,80.82585,R,ugm-3
02-01-2022,18:00,0.62365,R,ugm-3,10.71000,R,ugm-3,11.66625,R,ugm-3,77.23359,R,ugm-3
02-01-2022,19:00,0.62365,R,ugm-3,12.43125,R,ugm-3,13.38750,R,ugm-3,74.04047,R,ugm-3
02-01-2022,20:00,0.24946,R,ugm-3,12.04875,R,ugm-3,12.43125,R,ugm-3,74.24004,R,ugm-3
02-01-2022,21:00,0.24946,R,ugm-3,8.22375,R,ugm-3,8.60625,R,ugm-3,79.22929,R,ugm-3
02-01-2022,22:00,0.49892,R,ugm-3,9.37125,R,ugm-3,10.13625,R,ugm-3,79.02972,R,ugm-3
02-01-2022,23:00,0.24946,R,ugm-3,7.07625,R,ugm-3,7.45875,R,ugm-3,78.63058,R,ugm-3
02-01-2022,24:00,0.00000,R,ugm-3,5.92875,R,ugm-3,5.92875,R,ugm-3,79.02972,R,ugm-3
03-01-2022,01:00,0.24946,R,ugm-3,4.78125,R,ugm-3,4.97250,R,ugm-3,79.82800,R,ugm-3
03-01-2022,02:00,0.24946,R,ugm-3,3.25125,R,ugm-3,3.63375,R,ugm-3,81.22499,R,ugm-3
03-01-2022,03:00,0.24946,R,ugm-3,2.48625,R,ugm-3,2.86875,R,ugm-3,82.82155,R,ugm-3
03-01-2022,04:00,0.12473,R,ugm-3,1.72125,R,ugm-3,1.91250,R,ugm-3,82.22284,R,ugm-3
03-01-2022,05:00,0.00000,R,ugm-3,1.72125,R,ugm-3,1.72125,R,ugm-3,82.22284,R,ugm-3
03-01-2022,06:00,0.12473,R,ugm-3,2.86875,R,ugm-3,3.06000,R,ugm-3,80.62628,R,ugm-3
03-01-2022,07:00,0.24946,R,ugm-3,5.35500,R,ugm-3,5.73750,R,ugm-3,79.02972,R,ugm-3
03-01-2022,08:00,0.24946,R,ugm-3,8.03250,R,ugm-3,8.41500,R,ugm-3,76.23574,R,ugm-3
03-01-2022,09:00,0.49892,R,ugm-3,11.47500,R,ugm-3,12.04875,R,ugm-3,73.64133,R,ugm-3
03-01-2022,10:00,0.62365,R,ugm-3,10.90125,R,ugm-3,11.85750,R,ugm-3,75.23789,R,ugm-3
03-01-2022,11:00,0.87311,R,ugm-3,10.32750,R,ugm-3,11.66625,R,ugm-3,77.63273,R,ugm-3
03-01-2022,12:00,0.74838,R,ugm-3,9.75375,R,ugm-3,11.09250,R,ugm-3,77.83230,R,ugm-3
03-01-2022,13:00,0.99784,R,ugm-3,9.75375,R,ugm-3,11.28375,R,ugm-3,79.42886,R,ugm-3
03-01-2022,14:00,0.99784,R,ugm-3,11.47500,R,ugm-3,13.00500,R,ugm-3,76.63488,R,ugm-3
03-01-2022,15:00,0.87311,R,ugm-3,13.96125,R,ugm-3,15.30000,R,ugm-3,73.44176,R,ugm-3
03-01-2022,16:00,0.74838,R,ugm-3,16.06500,R,ugm-3,17.21250,R,ugm-3,70.64778,R,ugm-3
03-01-2022,17:00,0.87311,R,ugm-3,21.22875,R,ugm-3,22.56750,R,ugm-3,64.46111,R,ugm-3
03-01-2022,18:00,0.74838,R,ugm-3,23.90625,R,ugm-3,25.05375,R,ugm-3,61.26799,R,ugm-3
03-01-2022,19:00,0.62365,R,ugm-3,21.22875,R,ugm-3,22.18500,R,ugm-3,62.66498,R,ugm-3
03-01-2022,20:00,0.62365,R,ugm-3,19.31625,R,ugm-3,20.27250,R,ugm-3,61.86670,R,ugm-3
03-01-2022,21:00,0.49892,R,ugm-3,17.40375,R,ugm-3,18.16875,R,ugm-3,63.06412,R,ugm-3
03-01-2022,22:00,0.62365,R,ugm-3,17.02125,R,ugm-3,17.97750,R,ugm-3,61.06842,R,ugm-3
03-01-2022,23:00,0.24946,R,ugm-3,16.83000,R,ugm-3,17.21250,R,ugm-3,60.27014,R,ugm-3
03-01-2022,24:00,0.12473,R,ugm-3,12.62250,R,ugm-3,12.81375,R,ugm-3,61.66713,R,ugm-3
04-01-2022,01:00,0.24946,R,ugm-3,12.62250,R,ugm-3,13.00500,R,ugm-3,59.07272,R,ugm-3
04-01-2022,02:00,0.00000,R,ugm-3,11.47500,R,ugm-3,11.47500,R,ugm-3,57.47616,R,ugm-3
04-01-2022,03:00,0.24946,R,ugm-3,9.56250,R,ugm-3,9.94500,R,ugm-3,59.47186,R,ugm-3
04-01-2022,04:00,0.12473,R,ugm-3,9.37125,R,ugm-3,9.75375,R,ugm-3,57.27659,R,ugm-3
04-01-2022,05:00,0.24946,R,ugm-3,9.94500,R,ugm-3,10.32750,R,ugm-3,54.68218,R,ugm-3
04-01-2022,06:00,0.24946,R,ugm-3,13.96125,R,ugm-3,14.34375,R,ugm-3,52.48691,R,ugm-3
04-01-2022,07:00,0.99784,R,ugm-3,21.22875,R,ugm-3,22.75875,R,ugm-3,43.50626,R,ugm-3
04-01-2022,08:00,2.12041,R,ugm-3,32.32125,R,ugm-3,35.57250,R,ugm-3,32.92905,R,ugm-3
04-01-2022,09:00,3.36771,R,ugm-3,35.57250,R,ugm-3,40.73625,R,ugm-3,28.13937,R,ugm-3
04-01-2022,10:00,1.49676,R,ugm-3,17.40375,R,ugm-3,19.89000,R,ugm-3,48.49551,R,ugm-3
04-01-2022,11:00,0.49892,R,ugm-3,6.50250,R,ugm-3,7.07625,R,ugm-3,65.45896,R,ugm-3
04-01-2022,12:00,0.62365,R,ugm-3,6.88500,R,ugm-3,8.03250,R,ugm-3,64.86025,R,ugm-3
04-01-2022,13:00,1.37203,R,ugm-3,9.94500,R,ugm-3,11.85750,R,ugm-3,59.27229,R,ugm-3
04-01-2022,14:00,1.37203,R,ugm-3,10.71000,R,ugm-3,12.62250,R,ugm-3,57.27659,R,ugm-3
04-01-2022,15:00,1.74622,R,ugm-3,15.30000,R,ugm-3,18.16875,R,ugm-3,47.69723,R,ugm-3
04-01-2022,16:00,1.99568,R,ugm-3,23.71500,R,ugm-3,26.77500,R,ugm-3,38.11787,R,ugm-3
04-01-2022,17:00,2.24514,R,ugm-3,28.68750,R,ugm-3,32.13000,R,ugm-3,29.93550,R,ugm-3
04-01-2022,18:00,1.87095,R,ugm-3,24.09750,R,ugm-3,26.96625,R,ugm-3,35.52346,R,ugm-3
04-01-2022,19:00,2.12041,R,ugm-3,30.60000,R,ugm-3,33.85125,R,ugm-3,29.33679,R,ugm-3
04-01-2022,20:00,2.24514,R,ugm-3,33.08625,R,ugm-3,36.52875,R,ugm-3,24.94625,R,ugm-3
04-01-2022,21:00,1.49676,R,ugm-3,20.65500,R,ugm-3,22.95000,R,ugm-3,40.51271,R,ugm-3
04-01-2022,22:00,0.99784,R,ugm-3,13.19625,R,ugm-3,14.72625,R,ugm-3,49.29379,R,ugm-3
04-01-2022,23:00,0.62365,R,ugm-3,8.03250,R,ugm-3,8.98875,R,ugm-3,58.07487,R,ugm-3
04-01-2022,24:00,0.87311,R,ugm-3,4.97250,R,ugm-3,6.31125,R,ugm-3,62.66498,R,ugm-3
05-01-2022,01:00,0.37419,R,ugm-3,4.78125,R,ugm-3,5.16375,R,ugm-3,60.46971,R,ugm-3
05-01-2022,02:00,0.24946,R,ugm-3,3.25125,R,ugm-3,3.63375,R,ugm-3,60.86885,R,ugm-3
05-01-2022,03:00,0.24946,R,ugm-3,3.44250,R,ugm-3,3.82500,R,ugm-3,62.06627,R,ugm-3
05-01-2022,04:00,0.24946,R,ugm-3,3.25125,R,ugm-3,3.63375,R,ugm-3,63.06412,R,ugm-3
05-01-2022,05:00,0.37419,R,ugm-3,1.91250,R,ugm-3,2.48625,R,ugm-3,66.45681,R,ugm-3
05-01-2022,06:00,0.37419,R,ugm-3,2.86875,R,ugm-3,3.63375,R,ugm-3,67.25509,R,ugm-3
05-01-2022,07:00,0.74838,R,ugm-3,7.65000,R,ugm-3,8.79750,R,ugm-3,58.47401,R,ugm-3
05-01-2022,08:00,,,,,,,,,,41.11142,R,ugm-3
05-01-2022,09:00,1.62149,R,ugm-3,17.59500,R,ugm-3,20.08125,R,ugm-3,51.68863,R,ugm-3
05-01-2022,10:00,2.61933,R,ugm-3,18.16875,R,ugm-3,22.37625,R,ugm-3,49.49336,R,ugm-3
05-01-2022,11:00,2.49460,R,ugm-3,11.66625,R,ugm-3,15.68250,R,ugm-3,58.47401,R,ugm-3
05-01-2022,12:00,2.12041,R,ugm-3,8.79750,R,ugm-3,11.85750,R,ugm-3,64.26154,R,ugm-3
05-01-2022,13:00,1.74622,R,ugm-3,7.84125,R,ugm-3,10.51875,R,ugm-3,64.06197,R,ugm-3
05-01-2022,14:00,1.49676,R,ugm-3,8.41500,R,ugm-3,10.90125,R,ugm-3,61.06842,R,ugm-3
05-01-2022,15:00,1.49676,R,ugm-3,11.28375,R,ugm-3,13.38750,R,ugm-3,55.87960,R,ugm-3
05-01-2022,16:00,1.74622,R,ugm-3,17.21250,R,ugm-3,19.89000,R,ugm-3,48.69508,R,ugm-3
05-01-2022,17:00,2.36987,R,ugm-3,27.15750,R,ugm-3,30.79125,R,ugm-3,37.31959,R,ugm-3
05-01-2022,18:00,4.98920,R,ugm-3,45.51750,R,ugm-3,52.97625,R,ugm-3,15.56646,R,ugm-3
05-01-2022,19:00,11.59989,R,ugm-3,52.97625,R,ugm-3,70.76250,R,ugm-3,4.98925,R,ugm-3
05-01-2022,20:00,14.09449,R,ugm-3,53.16750,R,ugm-3,74.77875,R,ugm-3,3.19312,R,ugm-3
05-01-2022,21:00,3.86663,R,ugm-3,40.54500,R,ugm-3,46.28250,R,ugm-3,12.57291,R,ugm-3
05-01-2022,22:00,8.10745,R,ugm-3,46.47375,R,ugm-3,58.90500,R,ugm-3,6.18667,R,ugm-3
05-01-2022,23:00,7.98272,R,ugm-3,44.37000,R,ugm-3,56.61000,R,ugm-3,3.19312,R,ugm-3
05-01-2022,24:00,5.61285,R,ugm-3,39.97125,R,ugm-3,48.57750,R,ugm-3,4.78968,R,ugm-3
06-01-2022,01:00,7.35907,R,ugm-3,37.29375,R,ugm-3,48.57750,R,ugm-3,2.19527,R,ugm-3
06-01-2022,02:00,2.61933,R,ugm-3,30.98250,R,ugm-3,35.19000,R,ugm-3,7.38409,R,ugm-3
06-01-2022,03:00,1.49676,R,ugm-3,26.01000,R,ugm-3,28.30500,R,ugm-3,8.38194,R,ugm-3
06-01-2022,04:00,1.87095,R,ugm-3,28.11375,R,ugm-3,30.98250,R,ugm-3,6.38624,R,ugm-3
06-01-2022,05:00,3.99136,R,ugm-3,27.92250,R,ugm-3,34.04250,R,ugm-3,0.79828,R,ugm-3
06-01-2022,06:00,8.85583,R,ugm-3,26.96625,R,ugm-3,40.35375,R,ugm-3,1.59656,R,ugm-3
06-01-2022,07:00,11.59989,R,ugm-3,28.30500,R,ugm-3,46.28250,R,ugm-3,1.19742,R,ugm-3
06-01-2022,08:00,20.20626,R,ugm-3,28.30500,R,ugm-3,59.47875,R,ugm-3,0.00000,R,ugm-3
06-01-2022,09:00,12.84719,R,ugm-3,30.21750,R,ugm-3,49.91625,R,ugm-3,4.59011,R,ugm-3
06-01-2022,10:00,16.71382,R,ugm-3,32.89500,R,ugm-3,58.52250,R,ugm-3,9.57936,R,ugm-3
06-01-2022,11:00,14.84287,R,ugm-3,33.08625,R,ugm-3,55.84500,R,ugm-3,16.56431,R,ugm-3
06-01-2022,12:00,12.09881,R,ugm-3,39.20625,R,ugm-3,57.94875,R,ugm-3,16.36474,R,ugm-3
06-01-2022,13:00,3.49244,R,ugm-3,29.45250,R,ugm-3,34.80750,R,ugm-3,33.32819,R,ugm-3
06-01-2022,14:00,3.24298,R,ugm-3,26.58375,R,ugm-3,31.55625,R,ugm-3,35.52346,R,ugm-3
06-01-2022,15:00,2.86879,R,ugm-3,32.70375,R,ugm-3,37.10250,R,ugm-3,29.53636,R,ugm-3
06-01-2022,16:00,1.62149,R,ugm-3,29.26125,R,ugm-3,31.74750,R,ugm-3,40.31314,R,ugm-3
06-01-2022,17:00,1.37203,R,ugm-3,18.93375,R,ugm-3,21.03750,R,ugm-3,58.07487,R,ugm-3
06-01-2022,18:00,1.12257,R,ugm-3,16.83000,R,ugm-3,18.74250,R,ugm-3,63.06412,R,ugm-3
06-01-2022,19:00,0.87311,R,ugm-3,13.38750,R,ugm-3,14.72625,R,ugm-3,68.45251,R,ugm-3
06-01-2022,20:00,0.74838,R,ugm-3,11.09250,R,ugm-3,12.24000,R,ugm-3,66.85595,R,ugm-3
06-01-2022,21:00,0.87311,R,ugm-3,12.24000,R,ugm-3,13.57875,R,ugm-3,60.66928,R,ugm-3
06-01-2022,22:00,0.87311,R,ugm-3,13.77000,R,ugm-3,15.10875,R,ugm-3,57.87530,R,ugm-3
06-01-2022,23:00,0.62365,R,ugm-3,12.24000,R,ugm-3,13.19625,R,ugm-3,58.47401,R,ugm-3
06-01-2022,24:00,0.37419,R,ugm-3,7.84125,R,ugm-3,8.41500,R,ugm-3,73.24219,R,ugm-3
07-01-2022,01:00,0.24946,R,ugm-3,6.88500,R,ugm-3,7.26750,R,ugm-3,76.43531,R,ugm-3
07-01-2022,02:00,0.24946,R,ugm-3,5.54625,R,ugm-3,5.92875,R,ugm-3,79.62843,R,ugm-3
07-01-2022,03:00,0.12473,R,ugm-3,4.59000,R,ugm-3,4.78125,R,ugm-3,78.83015,R,ugm-3
07-01-2022,04:00,0.24946,R,ugm-3,4.39875,R,ugm-3,4.78125,R,ugm-3,78.23144,R,ugm-3
07-01-2022,05:00,0.37419,R,ugm-3,3.63375,R,ugm-3,4.20750,R,ugm-3,76.43531,R,ugm-3
07-01-2022,06:00,0.37419,R,ugm-3,5.54625,R,ugm-3,5.92875,R,ugm-3,75.03832,R,ugm-3
07-01-2022,07:00,0.49892,R,ugm-3,8.22375,R,ugm-3,8.98875,R,ugm-3,72.84305,R,ugm-3
07-01-2022,08:00,0.74838,R,ugm-3,16.44750,R,ugm-3,17.59500,R,ugm-3,64.86025,R,ugm-3
07-01-2022,09:00,1.37203,R,ugm-3,21.22875,R,ugm-3,23.33250,R,ugm-3,57.87530,R,ugm-3
07-01-2022,10:00,2.49460,R,ugm-3,21.80250,R,ugm-3,25.62750,R,ugm-3,57.27659,R,ugm-3
07-01-2022,11:00,2.24514,R,ugm-3,14.15250,R,ugm-3,17.78625,R,ugm-3,66.85595,R,ugm-3
07-01-2022,12:00,1.87095,R,ugm-3,9.75375,R,ugm-3,12.62250,R,ugm-3,70.24864,R,ugm-3
07-01-2022,13:00,1.74622,R,ugm-3,9.56250,R,ugm-3,12.24000,R,ugm-3,71.64563,R,ugm-3
07-01-2022,14:00,1.37203,R,ugm-3,12.62250,R,ugm-3,14.72625,R,ugm-3,68.85165,R,ugm-3
07-01-2022,15:00,1.24730,R,ugm-3,18.74250,R,ugm-3,20.65500,R,ugm-3,61.86670,R,ugm-3
07-01-2022,16:00,1.12257,R,ugm-3,19.12500,R,ugm-3,20.84625,R,ugm-3,59.47186,R,ugm-3
07-01-2022,17:00,0.99784,R,ugm-3,18.55125,R,ugm-3,19.89000,R,ugm-3,61.86670,R,ugm-3
07-01-2022,18:00,0.74838,R,ugm-3,17.21250,R,ugm-3,18.36000,R,ugm-3,70.84735,R,ugm-3
07-01-2022,19:00,0.99784,R,ugm-3,19.89000,R,ugm-3,21.42000,R,ugm-3,63.66283,R,ugm-3
07-01-2022,20:00,1.24730,R,ugm-3,27.54000,R,ugm-3,29.64375,R,ugm-3,49.09422,R,ugm-3
07-01-2022,21:00,1.62149,R,ugm-3,28.68750,R,ugm-3,31.17375,R,ugm-3,43.90540,R,ugm-3
07-01-2022,22:00,1.49676,R,ugm-3,22.37625,R,ugm-3,24.48000,R,ugm-3,48.29594,R,ugm-3
07-01-2022,23:00,1.12257,R,ugm-3,18.74250,R,ugm-3,20.65500,R,ugm-3,48.89465,R,ugm-3
07-01-2022,24:00,0.62365,R,ugm-3,21.42000,R,ugm-3,22.37625,R,ugm-3,41.71013,R,ugm-3
08-01-2022,01:00,0.87311,R,ugm-3,27.34875,R,ugm-3,28.68750,R,ugm-3,29.33679,R,ugm-3
08-01-2022,02:00,0.49892,R,ugm-3,16.06500,R,ugm-3,16.83000,R,ugm-3,40.31314,R,ugm-3
08-01-2022,03:00,0.37419,R,ugm-3,13.19625,R,ugm-3,13.77000,R,ugm-3,43.30669,R,ugm-3
08-01-2022,04:00,0.37419,R,ugm-3,14.15250,R,ugm-3,14.72625,R,ugm-3,40.11357,R,ugm-3
08-01-2022,05:00,0.24946,R,ugm-3,11.66625,R,ugm-3,12.24000,R,ugm-3,45.90110,R,ugm-3
08-01-2022,06:00,0.37419,R,ugm-3,15.30000,R,ugm-3,15.87375,R,ugm-3,47.29809,R,ugm-3
08-01-2022,07:00,0.62365,R,ugm-3,15.49125,R,ugm-3,16.44750,R,ugm-3,48.49551,R,ugm-3
08-01-2022,08:00,0.99784,R,ugm-3,23.33250,R,ugm-3,24.67125,R,ugm-3,41.11142,R,ugm-3
08-01-2022,09:00,1.12257,R,ugm-3,21.03750,R,ugm-3,22.75875,R,ugm-3,47.89680,R,ugm-3
08-01-2022,10:00,1.12257,R,ugm-3,17.21250,R,ugm-3,18.93375,R,ugm-3,59.47186,R,ugm-3
08-01-2022,11:00,1.37203,R,ugm-3,16.83000,R,ugm-3,18.93375,R,ugm-3,68.05337,R,ugm-3
08-01-2022,12:00,1.12257,R,ugm-3,16.25625,R,ugm-3,18.16875,R,ugm-3,67.45466,R,ugm-3
08-01-2022,13:00,0.99784,R,ugm-3,14.34375,R,ugm-3,15.87375,R,ugm-3,70.24864,R,ugm-3
08-01-2022,14:00,0.99784,R,ugm-3,14.72625,R,ugm-3,16.25625,R,ugm-3,71.04692,R,ugm-3
08-01-2022,15:00,1.12257,R,ugm-3,15.30000,R,ugm-3,17.02125,R,ugm-3,70.44821,R,ugm-3
08-01-2022,16:00,1.12257,R,ugm-3,18.93375,R,ugm-3,20.65500,R,ugm-3,64.46111,R,ugm-3
08-01-2022,17:00,0.87311,R,ugm-3,14.91750,R,ugm-3,16.25625,R,ugm-3,66.25724,R,ugm-3
08-01-2022,18:00,0.99784,R,ugm-3,19.50750,R,ugm-3,21.03750,R,ugm-3,63.26369,R,ugm-3
08-01-2022,19:00,1.24730,R,ugm-3,21.03750,R,ugm-3,22.95000,R,ugm-3,57.07702,R,ugm-3
08-01-2022,20:00,0.99784,R,ugm-3,11.28375,R,ugm-3,12.81375,R,ugm-3,67.65423,R,ugm-3
08-01-2022,21:00,0.99784,R,ugm-3,7.26750,R,ugm-3,8.79750,R,ugm-3,79.02972,R,ugm-3
08-01-2022,22:00,0.87311,R,ugm-3,6.88500,R,ugm-3,8.22375,R,ugm-3,79.22929,R,ugm-3
08-01-2022,23:00,0.62365,R,ugm-3,7.26750,R,ugm-3,8.22375,R,ugm-3,71.84520,R,ugm-3
08-01-2022,24:00,0.37419,R,ugm-3,8.41500,R,ugm-3,8.79750,R,ugm-3,67.85380,R,ugm-3
09-01-2022,01:00,0.24946,R,ugm-3,7.65000,R,ugm-3,7.84125,R,ugm-3,65.25939,R,ugm-3
09-01-2022,02:00,0.12473,R,ugm-3,6.88500,R,ugm-3,7.07625,R,ugm-3,63.46326,R,ugm-3
09-01-2022,03:00,0.37419,R,ugm-3,6.31125,R,ugm-3,6.88500,R,ugm-3,63.06412,R,ugm-3
09-01-2022,04:00,0.24946,R,ugm-3,6.50250,R,ugm-3,7.07625,R,ugm-3,63.26369,R,ugm-3
09-01-2022,05:00,0.24946,R,ugm-3,4.78125,R,ugm-3,5.35500,R,ugm-3,65.25939,R,ugm-3
09-01-2022,06:00,0.49892,R,ugm-3,5.35500,R,ugm-3,5.92875,R,ugm-3,66.25724,R,ugm-3
09-01-2022,07:00,0.49892,R,ugm-3,8.60625,R,ugm-3,9.37125,R,ugm-3,65.05982,R,ugm-3
09-01-2022,08:00,0.74838,R,ugm-3,12.43125,R,ugm-3,13.57875,R,ugm-3,60.46971,R,ugm-3
09-01-2022,09:00,1.37203,R,ugm-3,19.89000,R,ugm-3,21.99375,R,ugm-3,53.08562,R,ugm-3
09-01-2022,10:00,2.61933,R,ugm-3,21.99375,R,ugm-3,26.01000,R,ugm-3,49.49336,R,ugm-3
09-01-2022,11:00,2.99352,R,ugm-3,16.63875,R,ugm-3,21.22875,R,ugm-3,56.07917,R,ugm-3
09-01-2022,12:00,2.36987,R,ugm-3,12.24000,R,ugm-3,16.06500,R,ugm-3,62.06627,R,ugm-3
09-01-2022,13:00,2.12041,R,ugm-3,11.28375,R,ugm-3,14.53500,R,ugm-3,65.05982,R,ugm-3
09-01-2022,14:00,1.87095,R,ugm-3,11.47500,R,ugm-3,14.15250,R,ugm-3,66.45681,R,ugm-3
09-01-2022,15:00,1.37203,R,ugm-3,12.43125,R,ugm-3,14.53500,R,ugm-3,66.85595,R,ugm-3
09-01-2022,16:00,1.49676,R,ugm-3,22.37625,R,ugm-3,24.67125,R,ugm-3,59.67143,R,ugm-3
09-01-2022,17:00,1.74622,R,ugm-3,27.34875,R,ugm-3,30.02625,R,ugm-3,52.08777,R,ugm-3
09-01-2022,18:00,5.48812,R,ugm-3,52.21125,R,ugm-3,60.62625,R,ugm-3,22.15227,R,ugm-3
09-01-2022,19:00,17.08801,R,ugm-3,57.56625,R,ugm-3,83.76750,R,ugm-3,3.79183,R,ugm-3
09-01-2022,20:00,11.59989,R,ugm-3,60.24375,R,ugm-3,78.03000,R,ugm-3,5.98710,R,ugm-3
09-01-2022,21:00,4.98920,R,ugm-3,52.02000,R,ugm-3,59.67000,R,ugm-3,6.38624,R,ugm-3
09-01-2022,22:00,14.46868,R,ugm-3,51.82875,R,ugm-3,74.01375,R,ugm-3,3.99140,R,ugm-3
09-01-2022,23:00,2.36987,R,ugm-3,38.05875,R,ugm-3,41.69250,R,ugm-3,18.95915,R,ugm-3
09-01-2022,24:00,3.24298,R,ugm-3,43.60500,R,ugm-3,48.57750,R,ugm-3,13.37119,R,ugm-3
10-01-2022,01:00,12.34827,R,ugm-3,43.22250,R,ugm-3,62.15625,R,ugm-3,1.79613,R,ugm-3
10-01-2022,02:00,15.09233,R,ugm-3,33.46875,R,ugm-3,56.61000,R,ugm-3,0.99785,R,ugm-3
10-01-2022,03:00,11.10097,R,ugm-3,29.07000,R,ugm-3,46.09125,R,ugm-3,1.79613,R,ugm-3
10-01-2022,04:00,12.72246,R,ugm-3,27.15750,R,ugm-3,46.66500,R,ugm-3,2.59441,R,ugm-3
10-01-2022,05:00,52.51133,R,ugm-3,32.89500,R,ugm-3,113.22000,R,ugm-3,2.19527,R,ugm-3
10-01-2022,06:00,63.86176,R,ugm-3,32.13000,R,ugm-3,130.05000,R,ugm-3,2.19527,R,ugm-3
10-01-2022,07:00,73.96489,R,ugm-3,31.74750,R,ugm-3,145.15875,R,ugm-3,1.79613,R,ugm-3
10-01-2022,08:00,104.02482,R,ugm-3,44.17875,R,ugm-3,203.68125,R,ugm-3,2.19527,R,ugm-3
10-01-2022,09:00,114.62687,R,ugm-3,48.57750,R,ugm-3,224.33625,R,ugm-3,2.79398,R,ugm-3
10-01-2022,10:00,107.64199,R,ugm-3,44.17875,R,ugm-3,209.22750,R,ugm-3,3.19312,R,ugm-3
10-01-2022,11:00,130.71704,R,ugm-3,54.12375,R,ugm-3,254.55375,R,ugm-3,3.39269,R,ugm-3
10-01-2022,12:00,146.18356,R,ugm-3,55.27125,R,ugm-3,279.41625,R,ugm-3,2.79398,R,ugm-3
10-01-2022,13:00,145.06099,R,ugm-3,58.14000,R,ugm-3,280.56375,R,ugm-3,2.39484,R,ugm-3
10-01-2022,14:00,147.05667,R,ugm-3,66.55500,R,ugm-3,292.03875,R,ugm-3,2.39484,R,ugm-3
10-01-2022,15:00,108.51510,R,ugm-3,71.52750,R,ugm-3,237.91500,R,ugm-3,7.18452,R,ugm-3
10-01-2022,16:00,4.24082,R,ugm-3,47.04750,R,ugm-3,53.55000,R,ugm-3,20.75528,R,ugm-3
10-01-2022,17:00,3.36771,R,ugm-3,49.53375,R,ugm-3,54.69750,R,ugm-3,17.36259,R,ugm-3
10-01-2022,18:00,3.11825,R,ugm-3,47.43000,R,ugm-3,52.21125,R,ugm-3,18.95915,R,ugm-3
10-01-2022,19:00,3.61717,R,ugm-3,51.06375,R,ugm-3,56.61000,R,ugm-3,16.16517,R,ugm-3
10-01-2022,20:00,3.49244,R,ugm-3,54.50625,R,ugm-3,59.86125,R,ugm-3,14.56861,R,ugm-3
10-01-2022,21:00,2.12041,R,ugm-3,48.19500,R,ugm-3,51.44625,R,ugm-3,19.75743,R,ugm-3
10-01-2022,22:00,1.74622,R,ugm-3,40.35375,R,ugm-3,43.03125,R,ugm-3,24.94625,R,ugm-3
10-01-2022,23:00,1.24730,R,ugm-3,31.36500,R,ugm-3,33.27750,R,ugm-3,37.51916,R,ugm-3
10-01-2022,24:00,0.49892,R,ugm-3,20.08125,R,ugm-3,20.84625,R,ugm-3,47.89680,R,ugm-3
11-01-2022,01:00,0.12473,R,ugm-3,16.25625,R,ugm-3,16.44750,R,ugm-3,44.70368,R,ugm-3
11-01-2022,02:00,0.12473,R,ugm-3,18.36000,R,ugm-3,18.55125,R,ugm-3,37.12002,R,ugm-3
11-01-2022,03:00,0.12473,R,ugm-3,14.15250,R,ugm-3,14.34375,R,ugm-3,40.11357,R,ugm-3
11-01-2022,04:00,0.12473,R,ugm-3,10.51875,R,ugm-3,10.71000,R,ugm-3,48.69508,R,ugm-3
11-01-2022,05:00,0.00000,R,ugm-3,7.45875,R,ugm-3,7.45875,R,ugm-3,56.47831,R,ugm-3
11-01-2022,06:00,0.12473,R,ugm-3,9.37125,R,ugm-3,9.56250,R,ugm-3,54.08347,R,ugm-3
11-01-2022,07:00,0.62365,R,ugm-3,20.08125,R,ugm-3,21.03750,R,ugm-3,44.50411,R,ugm-3
11-01-2022,08:00,1.49676,R,ugm-3,30.40875,R,ugm-3,32.70375,R,ugm-3,36.92045,R,ugm-3
11-01-2022,09:00,3.11825,R,ugm-3,34.99875,R,ugm-3,39.78000,R,ugm-3,32.52991,R,ugm-3
11-01-2022,10:00,3.49244,R,ugm-3,33.46875,R,ugm-3,39.01500,R,ugm-3,31.13292,R,ugm-3
11-01-2022,11:00,3.36771,R,ugm-3,30.02625,R,ugm-3,35.19000,R,ugm-3,32.13077,R,ugm-3
11-01-2022,12:00,3.74190,R,ugm-3,27.34875,R,ugm-3,33.08625,R,ugm-3,33.92690,R,ugm-3
11-01-2022,13:00,3.36771,R,ugm-3,26.01000,R,ugm-3,31.36500,R,ugm-3,35.32389,R,ugm-3
11-01-2022,14:00,3.11825,R,ugm-3,28.49625,R,ugm-3,33.27750,R,ugm-3,32.52991,R,ugm-3
11-01-2022,15:00,2.36987,R,ugm-3,28.49625,R,ugm-3,32.13000,R,ugm-3,30.93335,R,ugm-3
11-01-2022,16:00,5.11393,R,ugm-3,43.60500,R,ugm-3,51.25500,R,ugm-3,14.76818,R,ugm-3
11-01-2022,17:00,13.96976,R,ugm-3,52.40250,R,ugm-3,73.82250,R,ugm-3,4.39054,R,ugm-3
11-01-2022,18:00,6.98488,R,ugm-3,37.29375,R,ugm-3,47.81250,R,ugm-3,15.96560,R,ugm-3
11-01-2022,19:00,0.74838,R,ugm-3,24.28875,R,ugm-3,25.43625,R,ugm-3,33.12862,R,ugm-3
11-01-2022,20:00,0.62365,R,ugm-3,23.14125,R,ugm-3,24.09750,R,ugm-3,33.32819,R,ugm-3
11-01-2022,21:00,0.49892,R,ugm-3,20.65500,R,ugm-3,21.22875,R,ugm-3,32.92905,R,ugm-3
11-01-2022,22:00,0.74838,R,ugm-3,21.61125,R,ugm-3,22.75875,R,ugm-3,29.73593,R,ugm-3
11-01-2022,23:00,0.49892,R,ugm-3,19.50750,R,ugm-3,20.27250,R,ugm-3,29.73593,R,ugm-3
11-01-2022,24:00,0.37419,R,ugm-3,20.08125,R,ugm-3,20.65500,R,ugm-3,24.34754,R,ugm-3
12-01-2022,01:00,0.49892,R,ugm-3,20.08125,R,ugm-3,20.84625,R,ugm-3,22.15227,R,ugm-3
12-01-2022,02:00,0.37419,R,ugm-3,16.25625,R,ugm-3,16.83000,R,ugm-3,19.55786,R,ugm-3
12-01-2022,03:00,0.24946,R,ugm-3,17.97750,R,ugm-3,18.16875,R,ugm-3,15.96560,R,ugm-3
12-01-2022,04:00,1.62149,R,ugm-3,18.93375,R,ugm-3,21.61125,R,ugm-3,6.38624,R,ugm-3
12-01-2022,05:00,1.62149,R,ugm-3,18.36000,R,ugm-3,20.84625,R,ugm-3,6.38624,R,ugm-3
12-01-2022,06:00,0.62365,R,ugm-3,19.50750,R,ugm-3,20.27250,R,ugm-3,12.97205,R,ugm-3
12-01-2022,07:00,12.22354,R,ugm-3,28.68750,R,ugm-3,47.43000,R,ugm-3,2.79398,R,ugm-3
12-01-2022,08:00,29.81047,R,ugm-3,36.72000,R,ugm-3,82.42875,R,ugm-3,1.79613,R,ugm-3
12-01-2022,09:00,65.73271,R,ugm-3,44.56125,R,ugm-3,145.35000,R,ugm-3,1.39699,R,ugm-3
12-01-2022,10:00,76.58422,R,ugm-3,48.96000,R,ugm-3,166.57875,R,ugm-3,2.79398,R,ugm-3
12-01-2022,11:00,40.53725,R,ugm-3,50.49000,R,ugm-3,112.64625,R,ugm-3,6.78538,R,ugm-3
12-01-2022,12:00,27.81479,R,ugm-3,48.76875,R,ugm-3,91.41750,R,ugm-3,10.97635,R,ugm-3
12-01-2022,13:00,45.52645,R,ugm-3,60.81750,R,ugm-3,130.62375,R,ugm-3,8.98065,R,ugm-3
12-01-2022,14:00,38.91576,R,ugm-3,62.53875,R,ugm-3,122.01750,R,ugm-3,11.77463,R,ugm-3
12-01-2022,15:00,31.18250,R,ugm-3,59.28750,R,ugm-3,107.10000,R,ugm-3,11.37549,R,ugm-3
12-01-2022,16:00,14.21922,R,ugm-3,55.65375,R,ugm-3,77.45625,R,ugm-3,9.57936,R,ugm-3
12-01-2022,17:00,44.52861,R,ugm-3,57.56625,R,ugm-3,125.84250,R,ugm-3,2.19527,R,ugm-3
12-01-2022,18:00,79.70247,R,ugm-3,58.90500,R,ugm-3,181.11375,R,ugm-3,1.79613,R,ugm-3
12-01-2022,19:00,97.53886,R,ugm-3,56.80125,R,ugm-3,206.35875,R,ugm-3,1.99570,R,ugm-3
12-01-2022,20:00,89.55614,R,ugm-3,65.79000,R,ugm-3,203.10750,R,ugm-3,1.59656,R,ugm-3